EW2946 Weather Reports


Display with metric or nautical units.
time (UTC)temp
F
wind
direction
speed
MPH
gust
MPH
rain 1hr
in
rain 24hr
in
rain mn
in
humidity
%
barometer
mb
20260507003042 71 204 1.0 4.0 0.00 0.00 0.00 61 1016.4
20260507001542 72 120 0.0 3.0 0.00 0.00 0.00 62 1016.5
20260507000035 72 255 1.0 5.0 0.00 0.00 0.00 61 1016.4
20260506234537 72 197 1.0 6.0 0.00 0.00 0.00 61 1016.4
20260506233031 73 312 0.0 4.0 0.00 0.00 0.00 60 1016.5
20260506231531 72 59 1.0 7.0 0.00 0.00 0.00 59 1016.6
20260506230029 72 9 1.0 7.0 0.00 0.00 0.00 59 1016.9
20260506224530 73 209 2.0 4.0 0.00 0.00 0.00 59 1017.0
20260506223029 73 279 3.0 9.0 0.00 0.00 0.00 58 1017.1
20260506221522 74 222 1.0 5.0 0.00 0.00 0.00 55 1017.3
20260506220022 75 198 0.0 8.0 0.00 0.00 0.00 57 1017.4
20260506214531 73 286 2.0 7.0 0.00 0.00 0.00 58 1017.6
20260506213019 74 263 2.0 6.0 0.00 0.00 0.00 58 1017.9
20260506211515 74 5 1.0 7.0 0.00 0.00 0.00 58 1018.0
20260506210019 72 186 2.0 8.0 0.00 0.00 0.00 59 1018.0
20260506204514 73 193 1.0 8.0 0.00 0.00 0.00 59 1018.1
20260506203012 74 293 2.0 6.0 0.00 0.00 0.00 56 1018.2
20260506201513 73 327 0.0 10.0 0.00 0.00 0.00 60 1018.4
20260506200011 73 148 3.0 7.0 0.00 0.00 0.00 56 1018.5
20260506194508 72 265 2.0 6.0 0.00 0.00 0.00 60 1018.6
20260506193006 70 199 2.0 6.0 0.00 0.00 0.00 60 1018.7
20260506191504 71 333 0.0 4.0 0.00 0.00 0.00 58 1018.9
20260506190006 70 39 5.0 8.0 0.00 0.00 0.00 57 1019.0
20260506184502 70 74 2.0 7.0 0.00 0.00 0.00 57 1019.0
20260506183105 68 64 1.0 7.0 0.00 0.00 0.00 60 1019.2
20260506181622 68 122 1.0 4.0 0.00 0.00 0.00 63 1019.1
20260506180055 67 64 1.0 5.0 0.00 0.00 0.00 63 1019.3
20260506174552 68 49 2.0 4.0 0.00 0.00 0.00 63 1019.3
20260506173058 67 306 1.0 5.0 0.00 0.00 0.00 64 1019.3
20260506171546 63 306 1.0 3.0 0.00 0.00 0.00 69 1019.4
20260506170048 63 292 2.0 5.0 0.00 0.00 0.00 70 1019.5
20260506164547 63 78 0.0 7.0 0.00 0.00 0.00 68 1019.5
20260506163043 63 287 1.0 4.0 0.00 0.00 0.00 70 1019.6
20260506161537 63 250 0.0 5.0 0.00 0.00 0.00 73 1019.6
20260506160034 61 32 0.0 4.0 0.00 0.00 0.00 74 1019.7
20260506154529 59 49 0.0 6.0 0.00 0.00 0.00 76 1019.7
20260506153024 59 260 0.0 2.0 0.00 0.00 0.00 79 1019.8
20260506151521 58 90 0.0 3.0 0.00 0.00 0.00 83 1019.7
20260506150016 56 93 0.0 1.0 0.00 0.00 0.00 86 1019.8
20260506144515 55 71 0.0 1.0 0.00 0.00 0.00 88 1019.9
20260506143007 54 274 0.0 1.0 0.00 0.00 0.00 92 1019.9
20260506141504 52 274 0.0 0.0 0.00 0.00 0.00 93 1019.8
20260506140005 51 274 0.0 0.0 0.00 0.00 0.00 93 1019.7
20260506134558 50 274 0.0 1.0 0.00 0.00 0.00 93 1019.5
20260506133055 50 274 0.0 0.0 0.00 0.00 0.00 93 1019.3
20260506131555 50 274 0.0 0.0 0.00 0.00 0.00 93 1019.2
20260506130051 50 274 0.0 0.0 0.00 0.00 0.00 93 1019.1
20260506124551 50 274 0.0 0.0 0.00 0.00 0.00 93 1019.0
20260506123050 50 274 0.0 0.0 0.00 0.00 0.00 93 1018.9
20260506121548 50 274 0.0 0.0 0.00 0.00 0.00 93 1018.8
20260506120047 50 274 0.0 0.0 0.00 0.00 0.00 93 1018.7
20260506114547 50 274 0.0 0.0 0.00 0.00 0.00 93 1018.6
20260506113046 50 274 0.0 1.0 0.00 0.00 0.00 93 1018.7
20260506111547 50 274 0.0 0.0 0.00 0.00 0.00 93 1018.7
20260506110044 50 274 0.0 0.0 0.00 0.00 0.00 93 1018.5
20260506104544 50 274 0.0 0.0 0.00 0.00 0.00 93 1018.5
20260506103052 50 274 0.0 0.0 0.00 0.00 0.00 93 1018.4
20260506101543 50 274 0.0 0.0 0.00 0.00 0.00 93 1018.5
20260506100043 50 274 0.0 0.0 0.00 0.00 0.00 93 1018.5
20260506094542 49 274 0.0 0.0 0.00 0.00 0.00 93 1018.5
20260506093041 49 274 0.0 0.0 0.00 0.00 0.00 93 1018.6
20260506091546 49 274 0.0 0.0 0.00 0.00 0.00 92 1018.5
20260506090037 49 274 0.0 0.0 0.00 0.00 0.00 92 1018.4
20260506084542 50 274 0.0 1.0 0.00 0.00 0.00 92 1018.3
20260506083034 50 274 0.0 1.0 0.00 0.00 0.00 91 1018.3
20260506081532 51 274 0.0 0.0 0.00 0.00 0.00 91 1018.3
20260506073026 52 274 0.0 1.0 0.00 0.00 0.00 90 1017.9
20260506071525 53 274 0.0 0.0 0.00 0.00 0.00 90 1018.1
20260506061518 54 274 0.0 0.0 0.00 0.00 0.00 89 1017.7
20260506044512 55 274 0.0 0.0 0.00 0.00 0.00 86 1017.2
20260506043014 55 274 0.0 0.0 0.00 0.00 0.00 86 1017.0
20260506041510 55 274 0.0 0.0 0.00 0.00 0.00 85 1016.9
20260506040008 56 274 0.0 0.0 0.00 0.00 0.00 83 1016.7
20260506034517 56 274 0.0 0.0 0.00 0.00 0.00 83 1016.5
20260506033006 56 274 0.0 0.0 0.00 0.00 0.00 83 1016.4
20260506031503 56 274 0.0 0.0 0.00 0.00 0.00 84 1016.1
20260506030004 57 274 0.0 0.0 0.00 0.00 0.00 82 1015.9
20260506024504 57 274 0.0 1.0 0.00 0.00 0.00 81 1015.8
20260506023100 57 274 0.0 0.0 0.00 0.00 0.00 80 1015.7
20260506021559 58 274 0.0 0.0 0.00 0.00 0.00 80 1015.7
20260506020100 58 269 0.0 1.0 0.00 0.00 0.00 79 1015.8
20260506014559 58 267 0.0 2.0 0.00 0.00 0.00 77 1015.7
20260506013109 58 261 0.0 3.0 0.00 0.00 0.00 77 1015.5
20260506011608 59 271 0.0 3.0 0.00 0.00 0.00 77 1015.4
20260506010058 59 257 0.0 3.0 0.00 0.00 0.00 76 1015.4
20260506004556 59 284 0.0 3.0 0.00 0.00 0.00 76 1015.3